{"data":{"norad_id":82369,"intl_designator":"","name":"UNKNOWN","alt_names":[],"object_type":"UNKNOWN","status":"UNKNOWN","operator":null,"country":null,"launch_date":null,"launch_site_code":null,"launch_vehicle":null,"mission":null,"orbit_class":"UNKNOWN","rcs_meters":null,"size_class":null,"mass_kg":null,"dimensions":null,"purposes":[],"wikipedia_slug":null,"has_3d_model":false,"image_url":null,"decayed_at":null,"tle_current":{"epoch":"2026-05-23T18:08:08.857248Z","epoch_age_seconds":182872,"freshness":"STALE","line1":"1 82369U          26143.75565807  .00000453  00000+0  33821-3 0  9998","line2":"2 82369  98.8895 158.9060 0081880 250.6568 108.5730 13.98262989579814","mean_motion":13.98262989,"eccentricity":0.008188,"inclination_deg":98.8895,"raan_deg":158.906,"arg_perigee_deg":250.6568,"mean_anomaly_deg":108.573,"bstar":0.00033821,"rev_number":57981,"period_min":102.98491852594,"perigee_km":840.22444957643,"apogee_km":959.40821333233,"semimajor_km":7277.9533314544,"source":"CELESTRAK","updated_at":"2026-05-25T13:38:11.187685Z"}}}